Time,TemperatureF,DewpointF,PressureIn,WindDirection,WindDirectionDegrees,WindSpeedMPH,WindSpeedGustMPH,Humidity,HourlyPrecipIn,Conditions,Clouds,dailyrainin,SoftwareType,DateUTC
2013-03-03 00:00:00,33.0,26.0,29.16,NW,315,7.0,11.0,76,0.00,,,0.00,Rainwise IP-100,2013-03-03 05:00:00,
2013-03-03 00:05:00,33.0,26.0,29.16,NW,315,6.0,12.0,76,0.00,,,0.00,Rainwise IP-100,2013-03-03 05:05:00,
2013-03-03 00:10:00,33.0,26.0,29.16,NW,315,3.0,10.0,76,0.00,,,0.00,Rainwise IP-100,2013-03-03 05:10:00,
2013-03-03 00:15:00,33.0,26.0,29.16,NW,315,6.0,10.0,76,0.00,,,0.00,Rainwise IP-100,2013-03-03 05:15:00,
2013-03-03 00:20:00,33.0,26.0,29.16,NW,315,8.0,10.0,76,0.00,,,0.00,Rainwise IP-100,2013-03-03 05:20:00,
2013-03-03 00:25:00,33.0,28.0,29.16,NW,315,7.0,8.0,77,0.00,,,0.00,Rainwise IP-100,2013-03-03 05:25:00,
2013-03-03 00:30:00,33.0,28.0,29.16,WSW,247,5.0,7.0,77,0.00,,,0.00,Rainwise IP-100,2013-03-03 05:30:00,
2013-03-03 00:35:00,32.0,26.0,29.15,WNW,292,4.0,8.0,77,0.00,,,0.00,Rainwise IP-100,2013-03-03 05:35:00,
2013-03-03 00:40:00,32.0,26.0,29.15,NW,315,4.0,8.0,77,0.00,,,0.00,Rainwise IP-100,2013-03-03 05:40:00,
2013-03-03 00:41:00,32.0,26.0,29.15,WNW,292,6.0,8.0,77,0.00,,,0.00,Rainwise IP-100,2013-03-03 05:41:00,
2013-03-03 00:46:00,32.0,26.0,29.16,NW,315,7.0,9.0,77,0.00,,,0.00,Rainwise IP-100,2013-03-03 05:46:00,
2013-03-03 00:51:00,32.0,26.0,29.16,NW,315,7.0,9.0,77,0.00,,,0.00,Rainwise IP-100,2013-03-03 05:51:00,
2013-03-03 00:56:00,32.0,26.0,29.16,WNW,292,6.0,9.0,78,0.00,,,0.00,Rainwise IP-100,2013-03-03 05:56:00,
2013-03-03 01:01:00,32.0,26.0,29.16,NW,315,6.0,10.0,78,0.00,,,0.00,Rainwise IP-100,2013-03-03 06:01:00,
2013-03-03 01:06:00,32.0,26.0,29.16,NNW,337,6.0,9.0,78,0.00,,,0.00,Rainwise IP-100,2013-03-03 06:06:00,
2013-03-03 01:11:00,32.0,26.0,29.16,WNW,292,4.0,8.0,78,0.00,,,0.00,Rainwise IP-100,2013-03-03 06:11:00,
2013-03-03 01:16:00,32.0,26.0,29.16,WNW,292,6.0,9.0,78,0.00,,,0.00,Rainwise IP-100,2013-03-03 06:16:00,
2013-03-03 01:21:00,32.0,26.0,29.16,West,270,4.0,8.0,79,0.00,,,0.00,Rainwise IP-100,2013-03-03 06:21:00,
2013-03-03 01:26:00,32.0,26.0,29.16,WSW,247,4.0,9.0,79,0.00,,,0.00,Rainwise IP-100,2013-03-03 06:26:00,
2013-03-03 01:31:00,32.0,26.0,29.16,WSW,247,6.0,8.0,79,0.00,,,0.00,Rainwise IP-100,2013-03-03 06:31:00,
2013-03-03 01:36:00,32.0,26.0,29.16,West,270,3.0,8.0,79,0.00,,,0.00,Rainwise IP-100,2013-03-03 06:36:00,
2013-03-03 01:41:00,32.0,26.0,29.16,WNW,292,6.0,9.0,80,0.00,,,0.00,Rainwise IP-100,2013-03-03 06:41:00,
2013-03-03 01:46:00,32.0,26.0,29.15,NW,315,2.0,8.0,80,0.00,,,0.00,Rainwise IP-100,2013-03-03 06:46:00,
2013-03-03 01:51:00,32.0,26.0,29.15,West,270,6.0,9.0,80,0.00,,,0.00,Rainwise IP-100,2013-03-03 06:51:00,
2013-03-03 01:56:00,32.0,26.0,29.15,NW,315,4.0,9.0,80,0.00,,,0.00,Rainwise IP-100,2013-03-03 06:56:00,
2013-03-03 02:01:00,32.0,28.0,29.15,NW,315,4.0,7.0,81,0.00,,,0.00,Rainwise IP-100,2013-03-03 07:01:00,
2013-03-03 02:06:00,32.0,28.0,29.15,NW,315,6.0,7.0,81,0.00,,,0.00,Rainwise IP-100,2013-03-03 07:06:00,
2013-03-03 02:11:00,32.0,28.0,29.15,West,270,2.0,10.0,81,0.00,,,0.00,Rainwise IP-100,2013-03-03 07:11:00,
2013-03-03 02:16:00,32.0,28.0,29.15,WNW,292,4.0,9.0,81,0.00,,,0.00,Rainwise IP-100,2013-03-03 07:16:00,
2013-03-03 02:21:00,31.0,26.0,29.15,WNW,292,1.0,9.0,81,0.00,,,0.00,Rainwise IP-100,2013-03-03 07:21:00,
2013-03-03 02:26:00,31.0,26.0,29.14,NW,315,4.0,10.0,81,0.00,,,0.00,Rainwise IP-100,2013-03-03 07:26:00,
2013-03-03 02:31:00,31.0,26.0,29.14,NNW,337,3.0,9.0,81,0.00,,,0.00,Rainwise IP-100,2013-03-03 07:31:00,
2013-03-03 02:36:00,31.0,26.0,29.14,WNW,292,3.0,7.0,81,0.00,,,0.00,Rainwise IP-100,2013-03-03 07:36:00,
2013-03-03 02:41:00,31.0,26.0,29.14,NW,315,6.0,7.0,81,0.00,,,0.00,Rainwise IP-100,2013-03-03 07:41:00,
2013-03-03 02:46:00,31.0,26.0,29.14,North,360,6.0,12.0,81,0.00,,,0.00,Rainwise IP-100,2013-03-03 07:46:00,
2013-03-03 02:51:00,31.0,26.0,29.14,NW,315,2.0,9.0,81,0.00,,,0.00,Rainwise IP-100,2013-03-03 07:51:00,
2013-03-03 02:54:00,31.0,26.0,29.14,WNW,292,4.0,9.0,81,0.00,,,0.00,Rainwise IP-100,2013-03-03 07:54:00,
2013-03-03 02:59:00,31.0,26.0,29.14,NW,315,4.0,6.0,81,0.00,,,0.00,Rainwise IP-100,2013-03-03 07:59:00,
2013-03-03 03:04:00,31.0,26.0,29.15,West,270,5.0,8.0,81,0.00,,,0.00,Rainwise IP-100,2013-03-03 08:04:00,
2013-03-03 03:09:00,31.0,26.0,29.15,WNW,292,4.0,7.0,81,0.00,,,0.00,Rainwise IP-100,2013-03-03 08:09:00,
2013-03-03 03:14:00,31.0,26.0,29.14,NW,315,6.0,9.0,81,0.00,,,0.00,Rainwise IP-100,2013-03-03 08:14:00,
2013-03-03 03:19:00,31.0,26.0,29.14,West,270,6.0,10.0,81,0.00,,,0.00,Rainwise IP-100,2013-03-03 08:19:00,
2013-03-03 03:24:00,31.0,26.0,29.14,North,360,0.0,10.0,81,0.00,,,0.00,Rainwise IP-100,2013-03-03 08:24:00,
2013-03-03 03:29:00,31.0,26.0,29.14,West,270,5.0,10.0,81,0.00,,,0.00,Rainwise IP-100,2013-03-03 08:29:00,
2013-03-03 03:34:00,31.0,26.0,29.14,NW,315,6.0,7.0,81,0.00,,,0.00,Rainwise IP-100,2013-03-03 08:34:00,
2013-03-03 03:39:00,31.0,26.0,29.14,NW,315,1.0,9.0,81,0.00,,,0.00,Rainwise IP-100,2013-03-03 08:39:00,
2013-03-03 03:44:00,31.0,26.0,29.14,WNW,292,2.0,7.0,82,0.00,,,0.00,Rainwise IP-100,2013-03-03 08:44:00,
2013-03-03 03:49:00,31.0,26.0,29.14,West,270,2.0,6.0,82,0.00,,,0.00,Rainwise IP-100,2013-03-03 08:49:00,
2013-03-03 03:54:00,31.0,26.0,29.14,West,270,3.0,5.0,82,0.00,,,0.00,Rainwise IP-100,2013-03-03 08:54:00,
2013-03-03 03:59:00,31.0,26.0,29.14,WNW,292,3.0,6.0,82,0.00,,,0.00,Rainwise IP-100,2013-03-03 08:59:00,
2013-03-03 04:04:00,31.0,26.0,29.14,NNW,337,6.0,9.0,82,0.00,,,0.00,Rainwise IP-100,2013-03-03 09:04:00,
2013-03-03 04:09:00,31.0,26.0,29.14,NW,315,4.0,7.0,82,0.00,,,0.00,Rainwise IP-100,2013-03-03 09:09:00,
2013-03-03 04:14:00,31.0,26.0,29.14,SW,225,0.0,7.0,82,0.00,,,0.00,Rainwise IP-100,2013-03-03 09:14:00,
2013-03-03 04:19:00,31.0,26.0,29.14,WNW,292,7.0,7.0,82,0.00,,,0.00,Rainwise IP-100,2013-03-03 09:19:00,
2013-03-03 04:24:00,31.0,26.0,29.14,WNW,292,4.0,7.0,83,0.00,,,0.00,Rainwise IP-100,2013-03-03 09:24:00,
2013-03-03 04:29:00,31.0,26.0,29.14,WNW,292,5.0,7.0,84,0.00,,,0.00,Rainwise IP-100,2013-03-03 09:29:00,
2013-03-03 04:34:00,31.0,26.0,29.14,NW,315,6.0,7.0,85,0.00,,,0.00,Rainwise IP-100,2013-03-03 09:34:00,
2013-03-03 04:39:00,31.0,26.0,29.14,WNW,292,3.0,8.0,85,0.00,,,0.00,Rainwise IP-100,2013-03-03 09:39:00,
2013-03-03 04:44:00,30.0,28.0,29.14,NNW,337,4.0,8.0,86,0.00,,,0.00,Rainwise IP-100,2013-03-03 09:44:00,
2013-03-03 04:49:00,30.0,28.0,29.14,WNW,292,6.0,7.0,87,0.00,,,0.00,Rainwise IP-100,2013-03-03 09:49:00,
2013-03-03 04:54:00,30.0,28.0,29.15,WNW,292,2.0,8.0,87,0.00,,,0.00,Rainwise IP-100,2013-03-03 09:54:00,
2013-03-03 04:57:00,30.0,28.0,29.15,West,270,8.0,9.0,88,0.00,,,0.00,Rainwise IP-100,2013-03-03 09:57:00,
2013-03-03 05:02:00,30.0,28.0,29.15,West,270,1.0,9.0,88,0.00,,,0.00,Rainwise IP-100,2013-03-03 10:02:00,
2013-03-03 05:07:00,30.0,28.0,29.14,WNW,292,5.0,7.0,88,0.00,,,0.00,Rainwise IP-100,2013-03-03 10:07:00,
2013-03-03 05:12:00,30.0,28.0,29.14,WNW,292,2.0,7.0,88,0.00,,,0.00,Rainwise IP-100,2013-03-03 10:12:00,
2013-03-03 05:17:00,30.0,28.0,29.14,WNW,292,3.0,7.0,88,0.00,,,0.00,Rainwise IP-100,2013-03-03 10:17:00,
2013-03-03 05:22:00,30.0,28.0,29.14,WNW,292,2.0,6.0,88,0.00,,,0.00,Rainwise IP-100,2013-03-03 10:22:00,
2013-03-03 05:27:00,30.0,28.0,29.14,West,270,6.0,7.0,88,0.00,,,0.00,Rainwise IP-100,2013-03-03 10:27:00,
2013-03-03 05:32:00,30.0,28.0,29.14,WNW,292,2.0,7.0,88,0.00,,,0.00,Rainwise IP-100,2013-03-03 10:32:00,
2013-03-03 05:37:00,30.0,28.0,29.14,WNW,292,2.0,7.0,88,0.00,,,0.00,Rainwise IP-100,2013-03-03 10:37:00,
2013-03-03 05:42:00,30.0,28.0,29.14,NW,315,1.0,6.0,88,0.00,,,0.00,Rainwise IP-100,2013-03-03 10:42:00,
2013-03-03 05:47:00,30.0,28.0,29.14,North,360,3.0,8.0,89,0.00,,,0.00,Rainwise IP-100,2013-03-03 10:47:00,
2013-03-03 05:52:00,30.0,28.0,29.14,NNW,337,2.0,7.0,88,0.00,,,0.00,Rainwise IP-100,2013-03-03 10:52:00,
2013-03-03 05:57:00,30.0,28.0,29.14,WNW,292,0.0,7.0,87,0.00,,,0.00,Rainwise IP-100,2013-03-03 10:57:00,
2013-03-03 06:02:00,30.0,28.0,29.14,WNW,292,2.0,6.0,88,0.00,,,0.00,Rainwise IP-100,2013-03-03 11:02:00,
2013-03-03 06:07:00,30.0,28.0,29.14,WNW,292,3.0,9.0,87,0.00,,,0.00,Rainwise IP-100,2013-03-03 11:07:00,
2013-03-03 06:12:00,30.0,28.0,29.14,NW,315,0.0,7.0,88,0.00,,,0.00,Rainwise IP-100,2013-03-03 11:12:00,
2013-03-03 06:17:00,30.0,28.0,29.14,NW,315,7.0,7.0,88,0.00,,,0.00,Rainwise IP-100,2013-03-03 11:17:00,
2013-03-03 06:22:00,30.0,28.0,29.15,WNW,292,3.0,9.0,87,0.00,,,0.00,Rainwise IP-100,2013-03-03 11:22:00,
2013-03-03 06:27:00,30.0,28.0,29.15,WNW,292,1.0,10.0,87,0.00,,,0.00,Rainwise IP-100,2013-03-03 11:27:00,
2013-03-03 06:32:00,30.0,28.0,29.15,WNW,292,6.0,6.0,87,0.00,,,0.00,Rainwise IP-100,2013-03-03 11:32:00,
2013-03-03 06:37:00,30.0,28.0,29.15,West,270,2.0,7.0,87,0.00,,,0.00,Rainwise IP-100,2013-03-03 11:37:00,
2013-03-03 06:42:00,30.0,28.0,29.15,WSW,247,5.0,7.0,87,0.00,,,0.00,Rainwise IP-100,2013-03-03 11:42:00,
2013-03-03 06:47:00,30.0,28.0,29.15,NNW,337,3.0,11.0,87,0.00,,,0.00,Rainwise IP-100,2013-03-03 11:47:00,
2013-03-03 06:52:00,30.0,28.0,29.15,NW,315,4.0,6.0,87,0.00,,,0.00,Rainwise IP-100,2013-03-03 11:52:00,
2013-03-03 06:57:00,30.0,28.0,29.15,NNW,337,2.0,6.0,88,0.00,,,0.00,Rainwise IP-100,2013-03-03 11:57:00,
2013-03-03 07:02:00,30.0,28.0,29.15,West,270,6.0,6.0,89,0.00,,,0.00,Rainwise IP-100,2013-03-03 12:02:00,
2013-03-03 07:07:00,30.0,28.0,29.15,WNW,292,4.0,7.0,89,0.00,,,0.00,Rainwise IP-100,2013-03-03 12:07:00,
2013-03-03 07:12:00,30.0,28.0,29.15,North,360,6.0,7.0,89,0.00,,,0.00,Rainwise IP-100,2013-03-03 12:12:00,
2013-03-03 07:17:00,30.0,28.0,29.15,West,270,4.0,7.0,91,0.00,,,0.00,Rainwise IP-100,2013-03-03 12:17:00,
2013-03-03 07:22:00,30.0,28.0,29.15,WNW,292,6.0,8.0,91,0.00,,,0.00,Rainwise IP-100,2013-03-03 12:22:00,
2013-03-03 07:27:00,30.0,28.0,29.15,NNW,337,3.0,10.0,91,0.00,,,0.00,Rainwise IP-100,2013-03-03 12:27:00,
2013-03-03 07:32:00,30.0,28.0,29.16,NW,315,5.0,7.0,91,0.00,,,0.00,Rainwise IP-100,2013-03-03 12:32:00,
2013-03-03 07:37:00,30.0,29.0,29.16,NW,315,2.0,7.0,92,0.00,,,0.00,Rainwise IP-100,2013-03-03 12:37:00,
2013-03-03 07:42:00,30.0,29.0,29.16,West,270,7.0,7.0,93,0.00,,,0.00,Rainwise IP-100,2013-03-03 12:42:00,
2013-03-03 07:47:00,30.0,29.0,29.16,West,270,2.0,11.0,92,0.00,,,0.00,Rainwise IP-100,2013-03-03 12:47:00,
2013-03-03 07:52:00,31.0,28.0,29.15,North,360,7.0,9.0,91,0.00,,,0.00,Rainwise IP-100,2013-03-03 12:52:00,
2013-03-03 07:57:00,31.0,28.0,29.15,West,270,6.0,8.0,91,0.00,,,0.00,Rainwise IP-100,2013-03-03 12:57:00,
2013-03-03 08:02:00,31.0,28.0,29.15,NW,315,4.0,8.0,91,0.00,,,0.00,Rainwise IP-100,2013-03-03 13:02:00,
2013-03-03 08:07:00,31.0,28.0,29.15,NW,315,7.0,12.0,90,0.00,,,0.00,Rainwise IP-100,2013-03-03 13:07:00,
2013-03-03 08:12:00,31.0,28.0,29.15,WNW,292,5.0,10.0,90,0.00,,,0.00,Rainwise IP-100,2013-03-03 13:12:00,
2013-03-03 08:17:00,31.0,28.0,29.15,NNW,337,9.0,9.0,90,0.00,,,0.00,Rainwise IP-100,2013-03-03 13:17:00,
2013-03-03 08:22:00,31.0,28.0,29.15,NW,315,5.0,10.0,89,0.00,,,0.00,Rainwise IP-100,2013-03-03 13:22:00,
2013-03-03 08:27:00,31.0,28.0,29.15,NNW,337,6.0,9.0,89,0.00,,,0.00,Rainwise IP-100,2013-03-03 13:27:00,
2013-03-03 08:32:00,31.0,28.0,29.15,NW,315,7.0,8.0,89,0.00,,,0.00,Rainwise IP-100,2013-03-03 13:32:00,
2013-03-03 08:37:00,31.0,28.0,29.15,WNW,292,6.0,11.0,87,0.00,,,0.00,Rainwise IP-100,2013-03-03 13:37:00,
2013-03-03 08:42:00,31.0,28.0,29.15,WNW,292,3.0,9.0,87,0.00,,,0.00,Rainwise IP-100,2013-03-03 13:42:00,
2013-03-03 08:47:00,32.0,29.0,29.15,NW,315,9.0,10.0,87,0.00,,,0.00,Rainwise IP-100,2013-03-03 13:47:00,
2013-03-03 08:52:00,32.0,28.0,29.15,NNW,337,6.0,10.0,86,0.00,,,0.00,Rainwise IP-100,2013-03-03 13:52:00,
2013-03-03 08:57:00,32.0,29.0,29.15,NNW,337,5.0,10.0,87,0.00,,,0.00,Rainwise IP-100,2013-03-03 13:57:00,
2013-03-03 09:02:00,32.0,29.0,29.15,WNW,292,6.0,9.0,89,0.00,,,0.00,Rainwise IP-100,2013-03-03 14:02:00,
2013-03-03 09:07:00,31.0,28.0,29.15,WNW,292,7.0,12.0,91,0.00,,,0.00,Rainwise IP-100,2013-03-03 14:07:00,
2013-03-03 09:12:00,31.0,29.0,29.15,NNW,337,9.0,9.0,93,0.00,,,0.00,Rainwise IP-100,2013-03-03 14:12:00,
2013-03-03 09:17:00,31.0,29.0,29.15,West,270,2.0,12.0,95,0.00,,,0.00,Rainwise IP-100,2013-03-03 14:17:00,
2013-03-03 09:22:00,31.0,29.0,29.15,NW,315,6.0,10.0,94,0.00,,,0.00,Rainwise IP-100,2013-03-03 14:22:00,
2013-03-03 09:27:00,31.0,29.0,29.15,West,270,4.0,9.0,95,0.00,,,0.00,Rainwise IP-100,2013-03-03 14:27:00,
2013-03-03 09:32:00,31.0,29.0,29.15,West,270,5.0,9.0,95,0.00,,,0.00,Rainwise IP-100,2013-03-03 14:32:00,
2013-03-03 09:37:00,31.0,29.0,29.15,WNW,292,7.0,7.0,95,0.00,,,0.00,Rainwise IP-100,2013-03-03 14:37:00,
2013-03-03 09:42:00,32.0,31.0,29.15,SSE,157,1.0,7.0,95,0.00,,,0.00,Rainwise IP-100,2013-03-03 14:42:00,
2013-03-03 09:47:00,32.0,31.0,29.15,West,270,1.0,6.0,95,0.00,,,0.00,Rainwise IP-100,2013-03-03 14:47:00,
2013-03-03 09:52:00,32.0,31.0,29.15,WNW,292,4.0,8.0,95,0.00,,,0.00,Rainwise IP-100,2013-03-03 14:52:00,
2013-03-03 09:57:00,32.0,31.0,29.15,WNW,292,4.0,7.0,95,0.00,,,0.00,Rainwise IP-100,2013-03-03 14:57:00,
2013-03-03 10:02:00,33.0,32.0,29.14,West,270,6.0,9.0,95,0.00,,,0.00,Rainwise IP-100,2013-03-03 15:02:00,
2013-03-03 10:07:00,33.0,32.0,29.14,North,360,6.0,7.0,93,0.00,,,0.00,Rainwise IP-100,2013-03-03 15:07:00,
2013-03-03 10:12:00,33.0,31.0,29.14,North,360,7.0,11.0,92,0.00,,,0.00,Rainwise IP-100,2013-03-03 15:12:00,
2013-03-03 10:17:00,33.0,31.0,29.14,NNW,337,9.0,10.0,88,0.00,,,0.00,Rainwise IP-100,2013-03-03 15:17:00,
2013-03-03 10:22:00,34.0,32.0,29.13,NW,315,8.0,11.0,91,0.00,,,0.00,Rainwise IP-100,2013-03-03 15:22:00,
2013-03-03 10:27:00,34.0,31.0,29.13,NNW,337,6.0,11.0,86,0.00,,,0.00,Rainwise IP-100,2013-03-03 15:27:00,
2013-03-03 10:32:00,35.0,31.0,29.13,NW,315,7.0,12.0,87,0.00,,,0.00,Rainwise IP-100,2013-03-03 15:32:00,
2013-03-03 10:37:00,35.0,31.0,29.13,WNW,292,9.0,10.0,87,0.00,,,0.00,Rainwise IP-100,2013-03-03 15:37:00,
2013-03-03 10:42:00,35.0,31.0,29.13,NW,315,7.0,9.0,85,0.00,,,0.00,Rainwise IP-100,2013-03-03 15:42:00,
2013-03-03 10:47:00,35.0,31.0,29.13,NW,315,7.0,14.0,84,0.00,,,0.00,Rainwise IP-100,2013-03-03 15:47:00,
2013-03-03 10:52:00,35.0,31.0,29.13,NW,315,6.0,10.0,84,0.00,,,0.00,Rainwise IP-100,2013-03-03 15:52:00,
2013-03-03 10:57:00,36.0,31.0,29.13,WSW,247,6.0,8.0,83,0.00,,,0.00,Rainwise IP-100,2013-03-03 15:57:00,
2013-03-03 11:02:00,36.0,32.0,29.13,West,270,2.0,10.0,84,0.00,,,0.00,Rainwise IP-100,2013-03-03 16:02:00,
2013-03-03 11:07:00,36.0,32.0,29.13,NW,315,7.0,7.0,85,0.00,,,0.00,Rainwise IP-100,2013-03-03 16:07:00,
2013-03-03 11:12:00,36.0,32.0,29.13,NW,315,7.0,10.0,85,0.00,,,0.00,Rainwise IP-100,2013-03-03 16:12:00,
2013-03-03 11:17:00,36.0,32.0,29.13,West,270,6.0,11.0,85,0.00,,,0.00,Rainwise IP-100,2013-03-03 16:17:00,
2013-03-03 11:22:00,37.0,32.0,29.13,NNW,337,5.0,10.0,84,0.00,,,0.00,Rainwise IP-100,2013-03-03 16:22:00,
2013-03-03 11:27:00,37.0,32.0,29.13,WNW,292,7.0,9.0,81,0.00,,,0.00,Rainwise IP-100,2013-03-03 16:27:00,
2013-03-03 11:32:00,37.0,32.0,29.13,NW,315,5.0,8.0,82,0.00,,,0.00,Rainwise IP-100,2013-03-03 16:32:00,
2013-03-03 11:37:00,37.0,31.0,29.13,NNW,337,6.0,9.0,79,0.00,,,0.00,Rainwise IP-100,2013-03-03 16:37:00,
2013-03-03 11:42:00,38.0,32.0,29.12,NNW,337,5.0,11.0,80,0.00,,,0.00,Rainwise IP-100,2013-03-03 16:42:00,
2013-03-03 11:47:00,37.0,31.0,29.12,West,270,1.0,12.0,79,0.00,,,0.00,Rainwise IP-100,2013-03-03 16:47:00,
2013-03-03 11:52:00,38.0,32.0,29.12,WNW,292,7.0,8.0,78,0.00,,,0.00,Rainwise IP-100,2013-03-03 16:52:00,
2013-03-03 11:57:00,38.0,32.0,29.12,SSW,202,9.0,10.0,79,0.00,,,0.00,Rainwise IP-100,2013-03-03 16:57:00,
2013-03-03 12:02:00,38.0,33.0,29.11,WNW,292,4.0,11.0,81,0.00,,,0.00,Rainwise IP-100,2013-03-03 17:02:00,
2013-03-03 12:07:00,39.0,32.0,29.11,NNE,22,9.0,9.0,77,0.00,,,0.00,Rainwise IP-100,2013-03-03 17:07:00,
2013-03-03 12:12:00,39.0,32.0,29.11,NW,315,6.0,10.0,77,0.00,,,0.00,Rainwise IP-100,2013-03-03 17:12:00,
2013-03-03 12:17:00,39.0,32.0,29.11,NW,315,7.0,12.0,76,0.00,,,0.00,Rainwise IP-100,2013-03-03 17:17:00,
2013-03-03 12:22:00,38.0,32.0,29.11,NW,315,8.0,10.0,77,0.00,,,0.00,Rainwise IP-100,2013-03-03 17:22:00,
2013-03-03 12:27:00,38.0,32.0,29.11,NNE,22,3.0,10.0,78,0.00,,,0.00,Rainwise IP-100,2013-03-03 17:27:00,
2013-03-03 12:32:00,38.0,32.0,29.11,WNW,292,3.0,10.0,78,0.00,,,0.00,Rainwise IP-100,2013-03-03 17:32:00,
2013-03-03 12:37:00,38.0,32.0,29.11,NNW,337,9.0,9.0,78,0.00,,,0.00,Rainwise IP-100,2013-03-03 17:37:00,
2013-03-03 12:42:00,38.0,32.0,29.10,NW,315,6.0,10.0,78,0.00,,,0.00,Rainwise IP-100,2013-03-03 17:42:00,
2013-03-03 12:47:00,38.0,32.0,29.10,WNW,292,4.0,8.0,77,0.00,,,0.00,Rainwise IP-100,2013-03-03 17:47:00,
2013-03-03 12:52:00,38.0,32.0,29.10,NW,315,6.0,10.0,78,0.00,,,0.00,Rainwise IP-100,2013-03-03 17:52:00,
2013-03-03 12:57:00,38.0,32.0,29.10,WNW,292,7.0,8.0,77,0.00,,,0.00,Rainwise IP-100,2013-03-03 17:57:00,
2013-03-03 13:02:00,38.0,32.0,29.10,NW,315,6.0,8.0,78,0.00,,,0.00,Rainwise IP-100,2013-03-03 18:02:00,
2013-03-03 13:07:00,38.0,32.0,29.10,WNW,292,5.0,9.0,78,0.00,,,0.00,Rainwise IP-100,2013-03-03 18:07:00,
2013-03-03 13:12:00,38.0,32.0,29.10,West,270,7.0,9.0,78,0.00,,,0.00,Rainwise IP-100,2013-03-03 18:12:00,
2013-03-03 13:17:00,38.0,32.0,29.10,NW,315,3.0,9.0,79,0.00,,,0.00,Rainwise IP-100,2013-03-03 18:17:00,
2013-03-03 13:22:00,38.0,33.0,29.10,SSW,202,2.0,8.0,81,0.00,,,0.00,Rainwise IP-100,2013-03-03 18:22:00,
2013-03-03 13:27:00,38.0,33.0,29.09,WNW,292,5.0,7.0,82,0.00,,,0.00,Rainwise IP-100,2013-03-03 18:27:00,
2013-03-03 13:32:00,38.0,32.0,29.09,North,360,6.0,7.0,80,0.00,,,0.00,Rainwise IP-100,2013-03-03 18:32:00,
2013-03-03 13:37:00,39.0,33.0,29.09,NW,315,9.0,10.0,78,0.00,,,0.00,Rainwise IP-100,2013-03-03 18:37:00,
2013-03-03 13:42:00,39.0,33.0,29.09,NNW,337,7.0,10.0,78,0.00,,,0.00,Rainwise IP-100,2013-03-03 18:42:00,
2013-03-03 13:47:00,39.0,35.0,29.09,WNW,292,6.0,9.0,82,0.00,,,0.00,Rainwise IP-100,2013-03-03 18:47:00,
2013-03-03 13:52:00,39.0,32.0,29.09,WNW,292,5.0,9.0,76,0.00,,,0.00,Rainwise IP-100,2013-03-03 18:52:00,
2013-03-03 13:57:00,40.0,33.0,29.09,WNW,292,3.0,8.0,75,0.00,,,0.00,Rainwise IP-100,2013-03-03 18:57:00,
2013-03-03 14:02:00,40.0,32.0,29.09,West,270,6.0,9.0,73,0.00,,,0.00,Rainwise IP-100,2013-03-03 19:02:00,
2013-03-03 14:07:00,40.0,33.0,29.09,SSW,202,2.0,7.0,74,0.00,,,0.00,Rainwise IP-100,2013-03-03 19:07:00,
2013-03-03 14:12:00,41.0,32.0,29.09,NNW,337,6.0,8.0,71,0.00,,,0.00,Rainwise IP-100,2013-03-03 19:12:00,
2013-03-03 14:17:00,40.0,32.0,29.09,West,270,4.0,10.0,72,0.00,,,0.00,Rainwise IP-100,2013-03-03 19:17:00,
2013-03-03 14:22:00,41.0,32.0,29.09,NW,315,6.0,10.0,70,0.00,,,0.00,Rainwise IP-100,2013-03-03 19:22:00,
2013-03-03 14:27:00,40.0,32.0,29.09,WSW,247,3.0,7.0,72,0.00,,,0.00,Rainwise IP-100,2013-03-03 19:27:00,
2013-03-03 14:32:00,40.0,32.0,29.09,NW,315,4.0,7.0,72,0.00,,,0.00,Rainwise IP-100,2013-03-03 19:32:00,
2013-03-03 14:37:00,40.0,33.0,29.09,West,270,6.0,9.0,76,0.00,,,0.00,Rainwise IP-100,2013-03-03 19:37:00,
2013-03-03 14:42:00,39.0,33.0,29.09,NNW,337,4.0,10.0,80,0.00,,,0.00,Rainwise IP-100,2013-03-03 19:42:00,
2013-03-03 14:47:00,39.0,35.0,29.09,West,270,2.0,7.0,85,0.00,,,0.00,Rainwise IP-100,2013-03-03 19:47:00,
2013-03-03 14:52:00,39.0,35.0,29.09,NW,315,10.0,10.0,83,0.00,,,0.00,Rainwise IP-100,2013-03-03 19:52:00,
2013-03-03 14:57:00,39.0,35.0,29.09,NNW,337,6.0,10.0,83,0.00,,,0.00,Rainwise IP-100,2013-03-03 19:57:00,
2013-03-03 15:02:00,39.0,33.0,29.09,NNW,337,7.0,10.0,81,0.00,,,0.00,Rainwise IP-100,2013-03-03 20:02:00,
2013-03-03 15:07:00,39.0,35.0,29.09,NNW,337,6.0,9.0,82,0.00,,,0.00,Rainwise IP-100,2013-03-03 20:07:00,
2013-03-03 15:12:00,39.0,35.0,29.09,NW,315,8.0,10.0,82,0.00,,,0.00,Rainwise IP-100,2013-03-03 20:12:00,
2013-03-03 15:17:00,39.0,35.0,29.09,WNW,292,7.0,9.0,82,0.00,,,0.00,Rainwise IP-100,2013-03-03 20:17:00,
2013-03-03 15:22:00,39.0,33.0,29.09,NW,315,4.0,11.0,81,0.00,,,0.00,Rainwise IP-100,2013-03-03 20:22:00,
2013-03-03 15:27:00,38.0,33.0,29.09,West,270,4.0,8.0,82,0.00,,,0.00,Rainwise IP-100,2013-03-03 20:27:00,
2013-03-03 15:32:00,39.0,33.0,29.08,WNW,292,2.0,8.0,81,0.00,,,0.00,Rainwise IP-100,2013-03-03 20:32:00,
2013-03-03 15:37:00,38.0,32.0,29.08,West,270,4.0,7.0,80,0.00,,,0.00,Rainwise IP-100,2013-03-03 20:37:00,
2013-03-03 15:42:00,39.0,33.0,29.08,WNW,292,0.0,7.0,80,0.00,,,0.00,Rainwise IP-100,2013-03-03 20:42:00,
2013-03-03 15:47:00,39.0,33.0,29.08,West,270,5.0,6.0,78,0.00,,,0.00,Rainwise IP-100,2013-03-03 20:47:00,
2013-03-03 15:52:00,39.0,32.0,29.08,WNW,292,6.0,7.0,77,0.00,,,0.00,Rainwise IP-100,2013-03-03 20:52:00,
2013-03-03 15:57:00,39.0,32.0,29.08,WNW,292,5.0,6.0,77,0.00,,,0.00,Rainwise IP-100,2013-03-03 20:57:00,
2013-03-03 16:02:00,39.0,32.0,29.08,West,270,3.0,8.0,75,0.00,,,0.00,Rainwise IP-100,2013-03-03 21:02:00,
2013-03-03 16:07:00,39.0,32.0,29.08,WNW,292,3.0,6.0,75,0.00,,,0.00,Rainwise IP-100,2013-03-03 21:07:00,
2013-03-03 16:12:00,39.0,32.0,29.08,NW,315,2.0,6.0,76,0.00,,,0.00,Rainwise IP-100,2013-03-03 21:12:00,
2013-03-03 16:17:00,39.0,32.0,29.08,NW,315,6.0,6.0,74,0.00,,,0.00,Rainwise IP-100,2013-03-03 21:17:00,
2013-03-03 16:22:00,39.0,32.0,29.08,West,270,3.0,7.0,74,0.00,,,0.00,Rainwise IP-100,2013-03-03 21:22:00,
2013-03-03 16:27:00,39.0,31.0,29.08,WSW,247,3.0,9.0,72,0.00,,,0.00,Rainwise IP-100,2013-03-03 21:27:00,
2013-03-03 16:32:00,39.0,31.0,29.08,SW,225,0.0,9.0,72,0.00,,,0.00,Rainwise IP-100,2013-03-03 21:32:00,
2013-03-03 16:37:00,39.0,32.0,29.08,WNW,292,2.0,6.0,73,0.00,,,0.00,Rainwise IP-100,2013-03-03 21:37:00,
2013-03-03 16:42:00,39.0,31.0,29.08,WSW,247,3.0,6.0,72,0.00,,,0.00,Rainwise IP-100,2013-03-03 21:42:00,
2013-03-03 16:47:00,39.0,32.0,29.08,West,270,6.0,8.0,73,0.00,,,0.00,Rainwise IP-100,2013-03-03 21:47:00,
2013-03-03 16:52:00,39.0,32.0,29.08,West,270,3.0,7.0,73,0.00,,,0.00,Rainwise IP-100,2013-03-03 21:52:00,
2013-03-03 16:57:00,39.0,32.0,29.08,West,270,3.0,7.0,73,0.00,,,0.00,Rainwise IP-100,2013-03-03 21:57:00,
2013-03-03 17:02:00,39.0,32.0,29.08,WNW,292,3.0,7.0,73,0.00,,,0.00,Rainwise IP-100,2013-03-03 22:02:00,
2013-03-03 17:07:00,38.0,31.0,29.08,SW,225,0.0,6.0,73,0.00,,,0.00,Rainwise IP-100,2013-03-03 22:07:00,
2013-03-03 17:12:00,38.0,31.0,29.09,WSW,247,3.0,5.0,73,0.00,,,0.00,Rainwise IP-100,2013-03-03 22:12:00,
2013-03-03 17:17:00,38.0,31.0,29.09,WNW,292,0.0,6.0,75,0.00,,,0.00,Rainwise IP-100,2013-03-03 22:17:00,
2013-03-03 17:22:00,38.0,31.0,29.09,WNW,292,5.0,8.0,73,0.00,,,0.00,Rainwise IP-100,2013-03-03 22:22:00,
2013-03-03 17:27:00,38.0,31.0,29.09,NW,315,7.0,7.0,72,0.00,,,0.00,Rainwise IP-100,2013-03-03 22:27:00,
2013-03-03 17:32:00,38.0,29.0,29.09,NNW,337,7.0,8.0,71,0.00,,,0.00,Rainwise IP-100,2013-03-03 22:32:00,
2013-03-03 17:37:00,38.0,29.0,29.09,NNW,337,6.0,10.0,68,0.00,,,0.00,Rainwise IP-100,2013-03-03 22:37:00,
2013-03-03 17:42:00,38.0,29.0,29.09,NW,315,6.0,11.0,68,0.00,,,0.00,Rainwise IP-100,2013-03-03 22:42:00,
2013-03-03 17:47:00,38.0,29.0,29.09,NNW,337,8.0,15.0,69,0.00,,,0.00,Rainwise IP-100,2013-03-03 22:47:00,
2013-03-03 17:52:00,38.0,29.0,29.09,NNW,337,6.0,12.0,70,0.00,,,0.00,Rainwise IP-100,2013-03-03 22:52:00,
2013-03-03 17:57:00,37.0,29.0,29.10,North,360,6.0,10.0,72,0.00,,,0.00,Rainwise IP-100,2013-03-03 22:57:00,
2013-03-03 18:02:00,37.0,29.0,29.11,NW,315,3.0,9.0,74,0.00,,,0.00,Rainwise IP-100,2013-03-03 23:02:00,
2013-03-03 18:07:00,37.0,31.0,29.11,West,270,5.0,12.0,76,0.00,,,0.00,Rainwise IP-100,2013-03-03 23:07:00,
2013-03-03 18:12:00,36.0,29.0,29.11,NNW,337,6.0,13.0,76,0.00,,,0.00,Rainwise IP-100,2013-03-03 23:12:00,
2013-03-03 18:17:00,36.0,29.0,29.11,West,270,4.0,10.0,75,0.00,,,0.00,Rainwise IP-100,2013-03-03 23:17:00,
2013-03-03 18:22:00,36.0,29.0,29.11,NNW,337,6.0,10.0,74,0.00,,,0.00,Rainwise IP-100,2013-03-03 23:22:00,
2013-03-03 18:27:00,36.0,29.0,29.11,WNW,292,7.0,8.0,74,0.00,,,0.00,Rainwise IP-100,2013-03-03 23:27:00,
2013-03-03 18:32:00,36.0,28.0,29.11,WNW,292,7.0,8.0,73,0.00,,,0.00,Rainwise IP-100,2013-03-03 23:32:00,
2013-03-03 18:37:00,36.0,28.0,29.11,WNW,292,6.0,9.0,73,0.00,,,0.00,Rainwise IP-100,2013-03-03 23:37:00,
2013-03-03 18:42:00,36.0,29.0,29.11,West,270,2.0,9.0,74,0.00,,,0.00,Rainwise IP-100,2013-03-03 23:42:00,
2013-03-03 18:47:00,36.0,28.0,29.11,West,270,4.0,7.0,73,0.00,,,0.00,Rainwise IP-100,2013-03-03 23:47:00,
2013-03-03 18:52:00,36.0,29.0,29.11,WNW,292,4.0,9.0,74,0.00,,,0.00,Rainwise IP-100,2013-03-03 23:52:00,
2013-03-03 18:57:00,36.0,28.0,29.11,WNW,292,6.0,9.0,73,0.00,,,0.00,Rainwise IP-100,2013-03-03 23:57:00,
2013-03-03 19:02:00,36.0,28.0,29.11,West,270,3.0,8.0,72,0.00,,,0.00,Rainwise IP-100,2013-03-04 00:02:00,
2013-03-03 19:07:00,36.0,28.0,29.11,WNW,292,1.0,9.0,72,0.00,,,0.00,Rainwise IP-100,2013-03-04 00:07:00,
2013-03-03 19:12:00,36.0,28.0,29.11,West,270,3.0,10.0,72,0.00,,,0.00,Rainwise IP-100,2013-03-04 00:12:00,
2013-03-03 19:17:00,36.0,28.0,29.11,WNW,292,1.0,7.0,72,0.00,,,0.00,Rainwise IP-100,2013-03-04 00:17:00,
2013-03-03 19:22:00,36.0,28.0,29.11,WNW,292,7.0,7.0,73,0.00,,,0.00,Rainwise IP-100,2013-03-04 00:22:00,
2013-03-03 19:27:00,36.0,28.0,29.11,WSW,247,5.0,10.0,73,0.00,,,0.00,Rainwise IP-100,2013-03-04 00:27:00,
2013-03-03 19:32:00,36.0,28.0,29.11,West,270,5.0,10.0,73,0.00,,,0.00,Rainwise IP-100,2013-03-04 00:32:00,
2013-03-03 19:37:00,36.0,28.0,29.10,WNW,292,6.0,9.0,73,0.00,,,0.00,Rainwise IP-100,2013-03-04 00:37:00,
2013-03-03 19:42:00,36.0,28.0,29.10,WNW,292,8.0,9.0,73,0.00,,,0.00,Rainwise IP-100,2013-03-04 00:42:00,
2013-03-03 19:47:00,36.0,28.0,29.11,WNW,292,3.0,10.0,73,0.00,,,0.00,Rainwise IP-100,2013-03-04 00:47:00,
2013-03-03 19:52:00,36.0,28.0,29.11,WNW,292,4.0,9.0,73,0.00,,,0.00,Rainwise IP-100,2013-03-04 00:52:00,
2013-03-03 19:57:00,36.0,28.0,29.11,West,270,5.0,11.0,73,0.00,,,0.00,Rainwise IP-100,2013-03-04 00:57:00,
2013-03-03 20:02:00,36.0,29.0,29.11,NNW,337,6.0,11.0,74,0.00,,,0.00,Rainwise IP-100,2013-03-04 01:02:00,
2013-03-03 20:07:00,36.0,29.0,29.11,NW,315,0.0,10.0,74,0.00,,,0.00,Rainwise IP-100,2013-03-04 01:07:00,
2013-03-03 20:12:00,36.0,29.0,29.11,NW,315,6.0,10.0,74,0.00,,,0.00,Rainwise IP-100,2013-03-04 01:12:00,
2013-03-03 20:17:00,36.0,28.0,29.11,NW,315,7.0,13.0,73,0.00,,,0.00,Rainwise IP-100,2013-03-04 01:17:00,
2013-03-03 20:22:00,36.0,28.0,29.11,NW,315,8.0,16.0,73,0.00,,,0.00,Rainwise IP-100,2013-03-04 01:22:00,
2013-03-03 20:27:00,36.0,29.0,29.11,NW,315,5.0,14.0,74,0.00,,,0.00,Rainwise IP-100,2013-03-04 01:27:00,
2013-03-03 20:32:00,36.0,29.0,29.11,WNW,292,10.0,10.0,74,0.00,,,0.00,Rainwise IP-100,2013-03-04 01:32:00,
2013-03-03 20:37:00,35.0,28.0,29.11,NNW,337,9.0,18.0,74,0.00,,,0.00,Rainwise IP-100,2013-03-04 01:37:00,
2013-03-03 20:42:00,35.0,28.0,29.11,NW,315,9.0,18.0,74,0.00,,,0.00,Rainwise IP-100,2013-03-04 01:42:00,
2013-03-03 20:47:00,35.0,28.0,29.12,WNW,292,9.0,20.0,74,0.00,,,0.00,Rainwise IP-100,2013-03-04 01:47:00,
2013-03-03 20:52:00,35.0,28.0,29.12,NNW,337,4.0,17.0,76,0.00,,,0.00,Rainwise IP-100,2013-03-04 01:52:00,
2013-03-03 20:57:00,35.0,28.0,29.12,WNW,292,5.0,13.0,76,0.00,,,0.00,Rainwise IP-100,2013-03-04 01:57:00,
2013-03-03 21:02:00,35.0,28.0,29.12,NW,315,7.0,16.0,77,0.00,,,0.00,Rainwise IP-100,2013-03-04 02:02:00,
2013-03-03 21:07:00,35.0,28.0,29.11,NW,315,7.0,15.0,76,0.00,,,0.00,Rainwise IP-100,2013-03-04 02:07:00,
2013-03-03 21:12:00,35.0,28.0,29.11,WNW,292,13.0,18.0,74,0.00,,,0.00,Rainwise IP-100,2013-03-04 02:12:00,
2013-03-03 21:17:00,35.0,28.0,29.11,WNW,292,2.0,19.0,74,0.00,,,0.00,Rainwise IP-100,2013-03-04 02:17:00,
2013-03-03 21:22:00,35.0,28.0,29.11,NW,315,6.0,12.0,75,0.00,,,0.00,Rainwise IP-100,2013-03-04 02:22:00,
2013-03-03 21:27:00,35.0,28.0,29.11,NW,315,7.0,12.0,75,0.00,,,0.00,Rainwise IP-100,2013-03-04 02:27:00,
2013-03-03 21:32:00,35.0,28.0,29.11,WNW,292,7.0,10.0,75,0.00,,,0.00,Rainwise IP-100,2013-03-04 02:32:00,
2013-03-03 21:37:00,35.0,28.0,29.11,NW,315,13.0,13.0,76,0.00,,,0.00,Rainwise IP-100,2013-03-04 02:37:00,
2013-03-03 21:42:00,35.0,28.0,29.11,NNW,337,7.0,20.0,75,0.00,,,0.00,Rainwise IP-100,2013-03-04 02:42:00,
2013-03-03 21:47:00,34.0,28.0,29.11,NW,315,10.0,15.0,75,0.00,,,0.00,Rainwise IP-100,2013-03-04 02:47:00,
2013-03-03 21:52:00,34.0,28.0,29.11,NNW,337,6.0,16.0,76,0.00,,,0.00,Rainwise IP-100,2013-03-04 02:52:00,
2013-03-03 21:57:00,34.0,28.0,29.11,NW,315,7.0,14.0,75,0.00,,,0.00,Rainwise IP-100,2013-03-04 02:57:00,
2013-03-03 22:02:00,34.0,28.0,29.11,NW,315,3.0,14.0,76,0.00,,,0.00,Rainwise IP-100,2013-03-04 03:02:00,
2013-03-03 22:07:00,34.0,28.0,29.11,NW,315,9.0,10.0,76,0.00,,,0.00,Rainwise IP-100,2013-03-04 03:07:00,
2013-03-03 22:12:00,34.0,28.0,29.11,NW,315,8.0,16.0,75,0.00,,,0.00,Rainwise IP-100,2013-03-04 03:12:00,
2013-03-03 22:17:00,34.0,28.0,29.11,NW,315,3.0,15.0,75,0.00,,,0.00,Rainwise IP-100,2013-03-04 03:17:00,
2013-03-03 22:22:00,34.0,28.0,29.11,West,270,6.0,9.0,75,0.00,,,0.00,Rainwise IP-100,2013-03-04 03:22:00,
2013-03-03 22:27:00,34.0,28.0,29.11,West,270,2.0,11.0,75,0.00,,,0.00,Rainwise IP-100,2013-03-04 03:27:00,
2013-03-03 22:32:00,33.0,26.0,29.11,NW,315,3.0,12.0,75,0.00,,,0.00,Rainwise IP-100,2013-03-04 03:32:00,
2013-03-03 22:37:00,33.0,26.0,29.11,NW,315,6.0,12.0,75,0.00,,,0.00,Rainwise IP-100,2013-03-04 03:37:00,
2013-03-03 22:42:00,33.0,26.0,29.11,NW,315,6.0,16.0,74,0.00,,,0.00,Rainwise IP-100,2013-03-04 03:42:00,
2013-03-03 22:47:00,33.0,26.0,29.10,NNW,337,17.0,22.0,73,0.00,,,0.00,Rainwise IP-100,2013-03-04 03:47:00,
2013-03-03 22:52:00,33.0,26.0,29.10,West,270,6.0,17.0,73,0.00,,,0.00,Rainwise IP-100,2013-03-04 03:52:00,
2013-03-03 22:57:00,33.0,26.0,29.11,NNW,337,10.0,11.0,74,0.00,,,0.00,Rainwise IP-100,2013-03-04 03:57:00,
2013-03-03 23:02:00,33.0,26.0,29.11,NW,315,4.0,12.0,73,0.00,,,0.00,Rainwise IP-100,2013-03-04 04:02:00,
2013-03-03 23:07:00,33.0,26.0,29.11,West,270,7.0,10.0,73,0.00,,,0.00,Rainwise IP-100,2013-03-04 04:07:00,
2013-03-03 23:12:00,33.0,26.0,29.11,NW,315,5.0,14.0,73,0.00,,,0.00,Rainwise IP-100,2013-03-04 04:12:00,
2013-03-03 23:17:00,33.0,26.0,29.11,NW,315,6.0,10.0,74,0.00,,,0.00,Rainwise IP-100,2013-03-04 04:17:00,
2013-03-03 23:22:00,33.0,26.0,29.11,WNW,292,13.0,13.0,74,0.00,,,0.00,Rainwise IP-100,2013-03-04 04:22:00,
2013-03-03 23:27:00,33.0,26.0,29.11,NW,315,6.0,15.0,74,0.00,,,0.00,Rainwise IP-100,2013-03-04 04:27:00,
2013-03-03 23:32:00,33.0,26.0,29.11,NW,315,11.0,17.0,73,0.00,,,0.00,Rainwise IP-100,2013-03-04 04:32:00,
2013-03-03 23:37:00,33.0,26.0,29.11,NW,315,6.0,16.0,74,0.00,,,0.00,Rainwise IP-100,2013-03-04 04:37:00,
2013-03-03 23:42:00,33.0,26.0,29.11,WNW,292,3.0,12.0,75,0.00,,,0.00,Rainwise IP-100,2013-03-04 04:42:00,
2013-03-03 23:47:00,33.0,26.0,29.10,West,270,9.0,13.0,74,0.00,,,0.00,Rainwise IP-100,2013-03-04 04:47:00,
2013-03-03 23:52:00,33.0,26.0,29.10,WNW,292,10.0,13.0,75,0.00,,,0.00,Rainwise IP-100,2013-03-04 04:52:00,
2013-03-03 23:57:00,33.0,26.0,29.11,WNW,292,7.0,10.0,75,0.00,,,0.00,Rainwise IP-100,2013-03-04 04:57:00,